GW5532 Weather Reports


Display with metric or nautical units.
time (UTC)temp
F
wind
direction
speed
MPH
gust
MPH
rain 1hr
in
rain 24hr
in
rain mn
in
humidity
%
barometer
mb
20260506073510 49 352 4.0 13.0 0.00 0.00 0.00 66 1011.8
20260506073020 49 351 4.0 17.0 0.00 0.00 0.00 65 1012.0
20260506072507 49 58 7.0 17.0 0.00 0.00 0.00 65 1012.1
20260506072008 49 349 5.0 11.0 0.00 0.00 0.00 65 1012.1
20260506071526 49 69 5.0 14.0 0.00 0.00 0.00 65 1012.0
20260506071008 49 348 4.0 14.0 0.00 0.00 0.00 65 1012.3
20260506070504 49 19 4.0 13.0 0.00 0.00 0.00 65 1012.3
20260506062508 49 313 3.0 12.0 0.00 0.00 0.00 69 1012.3
20260506062017 49 352 3.0 9.0 0.00 0.00 0.00 69 1012.4
20260506061534 49 57 4.0 11.0 0.00 0.00 0.00 70 1012.3
20260506061011 49 32 3.0 11.0 0.00 0.00 0.00 71 1012.5
20260506060508 49 61 2.0 10.0 0.00 0.00 0.00 72 1012.4
20260506051013 49 44 5.0 13.0 0.00 0.00 0.00 75 1012.2
20260506050504 49 339 5.0 13.0 0.00 0.00 0.00 75 1012.5
20260506045007 49 51 3.0 11.0 0.00 0.00 0.00 76 1012.7
20260506044520 49 91 4.0 13.0 0.00 0.00 0.00 76 1012.5
20260506044013 49 33 4.0 13.0 0.00 0.00 0.00 77 1012.5
20260506043511 49 346 4.0 10.0 0.00 0.00 0.00 78 1012.4
20260506043025 49 5 3.0 9.0 0.00 0.00 0.00 79 1012.4
20260506042507 49 342 3.0 9.0 0.00 0.00 0.00 79 1012.5
20260506042012 49 5 4.0 11.0 0.00 0.00 0.00 80 1012.5
20260506041524 49 46 4.0 10.0 0.00 0.00 0.00 80 1012.5
20260506041003 49 35 4.0 9.0 0.00 0.00 0.00 80 1012.5
20260506040508 49 19 3.0 10.0 0.00 0.00 0.00 80 1012.4
20260506040021 49 317 2.0 12.0 0.00 0.00 0.00 80 1012.5
20260506035508 49 70 4.0 12.0 0.00 0.00 0.00 80 1012.5
20260506035008 49 82 5.0 12.0 0.00 0.00 0.00 80 1012.5
20260506034522 49 19 3.0 11.0 0.00 0.00 0.00 80 1012.5
20260506034010 49 340 3.0 11.0 0.00 0.00 0.00 80 1012.3
20260506033509 49 93 3.0 11.0 0.00 0.00 0.00 80 1012.4
20260506033027 49 13 4.0 13.0 0.00 0.00 0.00 79 1012.3
20260506032511 49 322 4.0 15.0 0.00 0.00 0.00 79 1012.2
20260506032007 49 328 5.0 15.0 0.00 0.00 0.00 79 1012.1
20260506031534 49 360 5.0 16.0 0.00 0.00 0.00 79 1012.1
20260506031006 49 171 5.0 16.0 0.00 0.00 0.00 79 1011.8
20260506030506 50 59 6.0 12.0 0.00 0.00 0.00 79 1011.8
20260506030019 50 94 3.0 11.0 0.00 0.00 0.00 79 1011.7
20260506025508 50 13 4.0 12.0 0.00 0.00 0.00 79 1011.7
20260506025006 50 352 5.0 12.0 0.00 0.00 0.00 79 1011.7
20260506024535 50 10 5.0 13.0 0.00 0.00 0.00 79 1011.5
20260506024007 50 329 5.0 13.0 0.00 0.00 0.00 79 1011.5
20260506023503 50 32 2.0 12.0 0.00 0.00 0.00 79 1011.4
20260506023008 50 83 4.0 13.0 0.00 0.00 0.00 78 1011.3
20260506022506 50 34 6.0 13.0 0.00 0.00 0.00 78 1011.0
20260506022008 50 93 6.0 16.0 0.00 0.00 0.00 78 1011.1
20260506021514 50 289 6.0 16.0 0.00 0.00 0.00 78 1011.2
20260506021007 50 352 6.0 16.0 0.00 0.00 0.00 77 1011.0
20260506020505 50 45 4.0 16.0 0.00 0.00 0.00 77 1011.0
20260506020005 50 32 4.0 13.0 0.00 0.00 0.00 77 1010.8
20260506015506 51 340 4.0 13.0 0.00 0.00 0.00 77 1010.7
20260506015004 51 5 5.0 13.0 0.00 0.00 0.00 76 1010.7
20260506014513 51 315 4.0 13.0 0.00 0.00 0.00 76 1010.6
20260506014004 51 20 4.0 12.0 0.00 0.00 0.00 75 1010.6
20260506013504 51 5 4.0 12.0 0.00 0.00 0.00 74 1010.6
20260506013007 51 329 4.0 12.0 0.00 0.00 0.00 74 1010.6
20260506012505 51 352 4.0 12.0 0.00 0.00 0.00 73 1010.4
20260506012007 52 335 4.0 10.0 0.00 0.00 0.00 73 1010.1
20260506011537 52 351 2.0 8.0 0.00 0.00 0.00 73 1010.1
20260506011008 52 37 3.0 13.0 0.00 0.00 0.00 72 1010.1
20260506010513 52 350 2.0 13.0 0.00 0.00 0.00 72 1010.1
20260506010003 52 68 3.0 11.0 0.00 0.00 0.00 72 1009.9
20260506005502 52 23 3.0 11.0 0.00 0.00 0.00 72 1009.9
20260506005003 52 99 4.0 11.0 0.00 0.00 0.00 72 1009.8
20260506004506 52 13 4.0 14.0 0.00 0.00 0.00 72 1009.6
20260506004002 52 37 4.0 14.0 0.00 0.00 0.00 72 1009.5
20260506003503 52 11 4.0 10.0 0.00 0.00 0.00 73 1009.4
20260506003015 52 339 3.0 10.0 0.00 0.00 0.00 72 1009.3
20260506002509 53 40 4.0 10.0 0.00 0.00 0.00 73 1009.3
20260506002011 53 84 2.0 10.0 0.00 0.00 0.00 73 1009.3
20260506001519 53 360 4.0 10.0 0.00 0.00 0.00 73 1009.2
20260506001007 53 348 4.0 11.0 0.00 0.00 0.00 73 1009.2
20260506000511 53 75 5.0 11.0 0.00 0.00 0.00 72 1009.3
20260506000004 53 336 3.0 12.0 0.00 0.00 0.00 73 1009.1
20260505235504 53 22 3.0 12.0 0.00 0.00 0.00 73 1009.3
20260505235003 54 5 4.0 11.0 0.00 0.00 0.00 73 1009.2
20260505234515 53 17 5.0 14.0 0.00 0.00 0.00 73 1009.3
20260505234008 54 86 6.0 14.0 0.00 0.00 0.00 73 1009.1
20260505233504 53 15 3.0 15.0 0.00 0.00 0.00 73 1009.1
20260505233016 53 17 7.0 15.0 0.00 0.00 0.00 73 1009.4
20260505232510 54 294 6.0 14.0 0.00 0.00 0.00 73 1009.3
20260505232009 54 17 4.0 16.0 0.00 0.00 0.00 73 1009.3
20260505231522 54 27 4.0 16.0 0.00 0.00 0.00 72 1009.3
20260505231008 54 74 5.0 16.0 0.00 0.00 0.00 72 1009.0
20260505230502 54 352 5.0 14.0 0.00 0.00 0.00 72 1009.1
20260505230009 54 344 3.0 14.0 0.00 0.00 0.00 73 1009.1
20260505225505 54 338 3.0 13.0 0.00 0.00 0.00 73 1009.1
20260505225003 54 360 3.0 13.0 0.00 0.00 0.00 73 1009.4
20260505224515 54 119 4.0 11.0 0.00 0.00 0.00 73 1009.1
20260505224006 54 352 2.0 17.0 0.00 0.00 0.00 73 1009.0
20260505223506 54 163 5.0 17.0 0.00 0.00 0.00 73 1008.9
20260505223023 55 334 5.0 17.0 0.00 0.00 0.00 73 1008.9
20260505222508 55 98 5.0 13.0 0.00 0.00 0.00 73 1008.8
20260505222008 55 5 4.0 13.0 0.00 0.00 0.00 73 1008.7
20260505221524 55 328 5.0 15.0 0.00 0.00 0.00 73 1008.8
20260505221010 55 338 4.0 15.0 0.00 0.00 0.00 73 1008.7
20260505220502 55 92 3.0 12.0 0.00 0.00 0.00 73 1008.6
20260505220004 55 52 3.0 12.0 0.00 0.00 0.00 74 1008.5
20260505215503 55 350 4.0 15.0 0.00 0.00 0.00 74 1008.3
20260505215006 55 110 3.0 15.0 0.00 0.00 0.00 74 1008.1
20260505214520 55 46 5.0 14.0 0.00 0.00 0.00 74 1008.1
20260505214007 55 352 3.0 14.0 0.00 0.00 0.00 76 1008.0
20260505213509 55 9 2.0 15.0 0.00 0.00 0.00 75 1008.1
20260505213024 55 34 3.0 15.0 0.00 0.00 0.00 76 1008.0
20260505212506 55 349 4.0 12.0 0.00 0.00 0.00 77 1008.2
20260505212013 55 327 4.0 14.0 0.00 0.00 0.00 77 1008.3
20260505211530 55 348 3.0 14.0 0.00 0.00 0.00 77 1008.1
20260505211003 56 13 3.0 10.0 0.00 0.00 0.00 77 1007.7
20260505210502 56 333 3.0 10.0 0.00 0.00 0.00 77 1007.8
20260505210008 56 5 4.0 14.0 0.00 0.00 0.00 77 1007.9
20260505205506 56 69 5.0 11.0 0.00 0.00 0.00 77 1008.1
20260505205008 56 32 6.0 11.0 0.00 0.00 0.00 77 1008.1
20260505204516 56 136 4.0 12.0 0.00 0.00 0.00 77 1007.7
20260505204007 56 46 5.0 12.0 0.00 0.00 0.00 77 1007.3
20260505203508 57 19 5.0 14.0 0.00 0.00 0.00 77 1007.3
20260505203021 57 37 5.0 14.0 0.00 0.00 0.00 77 1007.3
20260505202507 57 34 5.0 12.0 0.00 0.00 0.00 77 1007.4
20260505202010 57 32 4.0 15.0 0.00 0.00 0.00 77 1007.5
20260505201530 57 60 3.0 15.0 0.00 0.00 0.00 76 1007.6
20260505201004 58 59 4.0 14.0 0.00 0.00 0.00 76 1007.6
20260505200503 57 352 4.0 14.0 0.00 0.00 0.00 77 1007.4
20260505200013 57 71 4.0 14.0 0.00 0.00 0.00 76 1007.3
20260505195503 58 9 4.0 13.0 0.00 0.00 0.00 77 1007.3
20260505195006 58 360 7.0 16.0 0.00 0.00 0.00 76 1007.4
20260505194518 58 351 4.0 16.0 0.00 0.00 0.00 76 1007.4
20260505194007 58 11 2.0 14.0 0.00 0.00 0.00 76 1007.4
20260505193509 59 11 6.0 14.0 0.00 0.00 0.00 76 1007.0
20260505193025 58 308 5.0 14.0 0.00 0.00 0.00 76 1006.7
20260505192508 59 9 5.0 14.0 0.00 0.00 0.00 76 1007.2
20260505192014 58 322 4.0 15.0 0.00 0.00 0.00 77 1007.4
20260505191509 59 346 5.0 15.0 0.00 0.00 0.00 76 1007.2
20260505191006 59 352 3.0 12.0 0.00 0.00 0.00 76 1007.1
20260505190505 59 13 3.0 13.0 0.00 0.00 0.00 76 1006.5
20260505190014 60 304 6.0 13.0 0.00 0.00 0.00 75 1006.5
20260505185508 60 96 3.0 12.0 0.00 0.00 0.00 76 1005.9
20260505185009 60 36 3.0 13.0 0.00 0.00 0.00 75 1006.5
20260505184525 60 83 3.0 13.0 0.00 0.00 0.00 77 1006.9
20260505184008 60 62 5.0 13.0 0.00 0.00 0.00 76 1006.9
20260505183511 60 32 5.0 15.0 0.00 0.00 0.00 76 1006.7
20260505183026 60 26 6.0 15.0 0.00 0.00 0.00 77 1006.6
20260505182507 60 338 4.0 11.0 0.00 0.00 0.00 77 1006.3
20260505182012 60 44 4.0 12.0 0.00 0.00 0.00 77 1006.4
20260505181509 60 11 4.0 13.0 0.00 0.00 0.00 77 1006.4
20260505181005 60 344 4.0 18.0 0.00 0.00 0.00 77 1006.3
20260505180507 60 80 5.0 18.0 0.00 0.00 0.00 77 1006.1
20260505180020 61 72 6.0 17.0 0.00 0.00 0.00 76 1005.9
20260505175506 61 34 6.0 15.0 0.00 0.00 0.00 76 1005.4
20260505175009 61 23 6.0 16.0 0.00 0.00 0.00 75 1005.5
20260505174522 62 311 5.0 16.0 0.00 0.00 0.00 75 1005.5
20260505174010 62 323 7.0 16.0 0.00 0.00 0.00 74 1005.5
20260505173510 63 340 5.0 16.0 0.00 0.00 0.00 74 1005.3
20260505173028 64 327 5.0 15.0 0.00 0.00 0.00 74 1005.5
20260505172506 65 43 7.0 15.0 0.00 0.00 0.00 73 1005.4
20260505172003 66 306 4.0 17.0 0.00 0.00 0.00 72 1005.2
20260505171512 68 44 8.0 16.0 0.00 0.00 0.00 72 1005.2
20260505171007 68 333 7.0 16.0 0.00 0.00 0.00 71 1004.9
20260505170508 69 9 6.0 15.0 0.00 0.00 0.00 71 1004.6
20260505170023 70 348 8.0 15.0 0.00 0.00 0.00 70 1004.2
20260505165508 71 288 6.0 16.0 0.00 0.00 0.00 70 1004.1
20260505165009 72 40 7.0 16.0 0.00 0.00 0.00 68 1003.9
20260505164526 74 11 6.0 13.0 0.00 0.00 0.00 64 1003.7
20260505164010 77 311 2.0 6.0 0.00 0.00 0.00 62 1003.4
20260505163514 77 360 1.0 3.0 0.00 0.00 0.00 66 1003.3
20260505163028 77 274 1.0 3.0 0.00 0.00 0.00 67 1003.3
20260505162506 76 255 1.0 6.0 0.00 0.00 0.00 66 1003.1
20260505162006 75 222 0.0 6.0 0.00 0.00 0.00 66 1003.1
20260505161514 75 254 2.0 4.0 0.00 0.00 0.00 66 1003.1
20260505161006 76 253 0.0 3.0 0.00 0.00 0.00 68 1002.9
20260505160510 75 253 1.0 3.0 0.00 0.00 0.00 68 1002.8
20260505153028 73 258 2.0 4.0 0.00 0.00 0.00 71 1002.3
20260505152506 74 254 2.0 4.0 0.00 0.00 0.00 72 1002.4
20260505152008 73 272 2.0 6.0 0.00 0.00 0.00 72 1002.4
20260505151520 74 301 1.0 6.0 0.00 0.00 0.00 71 1002.2
20260505151009 73 292 0.0 4.0 0.00 0.00 0.00 73 1002.3
20260505150507 73 292 0.0 4.0 0.00 0.00 0.00 73 1002.3
20260505140503 72 237 1.0 5.0 0.00 0.00 0.00 75 1001.6
20260505125008 69 224 2.0 7.0 0.00 0.00 0.00 80 1000.9
20260505124518 69 225 1.0 7.0 0.00 0.00 0.00 80 1000.9
20260505124006 69 204 1.0 7.0 0.00 0.00 0.00 80 1000.9
20260505123508 69 210 3.0 10.0 0.00 0.00 0.00 80 1000.7
20260505123029 69 36 3.0 10.0 0.00 0.00 0.00 80 1000.5
20260505122510 69 189 5.0 9.0 0.00 0.00 0.00 80 1000.5
20260505122004 69 198 4.0 7.0 0.00 0.00 0.00 80 1000.3
20260505121510 69 219 3.0 8.0 0.00 0.00 0.00 80 1000.3
20260505121006 69 149 1.0 9.0 0.00 0.00 0.00 80 1000.4
20260505120504 69 113 2.0 8.0 0.00 0.00 0.00 80 1000.3
20260505120009 69 125 2.0 7.0 0.00 0.00 0.00 80 1000.4
20260505115504 69 200 2.0 7.0 0.00 0.00 0.00 80 1000.4
20260505115003 69 38 1.0 6.0 0.00 0.00 0.00 80 1000.4
20260505114517 69 308 1.0 5.0 0.00 0.00 0.00 80 1000.5
20260505114008 69 233 2.0 5.0 0.00 0.00 0.00 80 1000.2
20260505113507 69 180 2.0 7.0 0.00 0.00 0.00 79 1000.1
20260505113023 69 219 1.0 7.0 0.00 0.00 0.00 79 1000.1
20260505112503 69 234 2.0 10.0 0.00 0.00 0.00 79 999.8
20260505112003 69 40 2.0 10.0 0.00 0.00 0.00 78 999.8
20260505111504 69 186 1.0 8.0 0.00 0.00 0.00 78 999.9
20260505111004 70 268 2.0 9.0 0.00 0.00 0.00 78 999.9
20260505110508 70 188 1.0 9.0 0.00 0.00 0.00 78 999.9
20260505102007 70 248 2.0 7.0 0.00 0.00 0.00 77 999.6
20260505101507 70 234 3.0 9.0 0.00 0.00 0.00 77 999.6
20260505101006 70 198 2.0 9.0 0.00 0.00 0.00 76 999.5
20260505100507 70 168 2.0 9.0 0.00 0.00 0.00 76 999.5
20260505100021 70 273 2.0 8.0 0.00 0.00 0.00 76 999.6
20260505095507 71 22 3.0 9.0 0.00 0.00 0.00 76 999.6
20260505095007 71 338 4.0 11.0 0.00 0.00 0.00 76 999.7
20260505094519 71 200 4.0 12.0 0.00 0.00 0.00 76 999.7
20260505094008 71 157 4.0 12.0 0.00 0.00 0.00 76 999.6
20260505093509 71 200 3.0 11.0 0.00 0.00 0.00 75 999.7
20260505093008 71 238 3.0 11.0 0.00 0.00 0.00 75 999.8
20260505092502 71 216 3.0 11.0 0.00 0.00 0.00 75 999.8
20260505092004 71 210 4.0 10.0 0.00 0.00 0.00 75 999.9
20260505091515 71 268 3.0 10.0 0.00 0.00 0.00 75 999.9
20260505091006 71 219 4.0 10.0 0.00 0.00 0.00 75 1000.0
20260505090507 71 109 2.0 10.0 0.00 0.00 0.00 75 1000.0
20260505090021 71 193 2.0 10.0 0.00 0.00 0.00 75 999.9
20260505085508 71 61 3.0 8.0 0.00 0.00 0.00 75 1000.0
20260505085011 71 178 2.0 10.0 0.00 0.00 0.00 75 1000.0
20260505084526 71 318 3.0 10.0 0.00 0.00 0.00 75 999.9
20260505084008 71 210 2.0 11.0 0.00 0.00 0.00 75 1000.0
20260505083514 71 146 1.0 11.0 0.00 0.00 0.00 75 1000.2
20260505083006 71 221 3.0 8.0 0.00 0.00 0.00 75 1000.2
20260505082506 71 254 2.0 10.0 0.00 0.00 0.00 75 1000.3
20260505082008 71 279 4.0 10.0 0.00 0.00 0.00 75 1000.3
20260505081518 71 188 3.0 10.0 0.00 0.00 0.00 75 1000.3
20260505081008 71 292 3.0 9.0 0.00 0.00 0.00 75 1000.3
20260505080508 71 189 3.0 12.0 0.00 0.00 0.00 75 1000.4